Location: Litvinovka
(48.6667°N, 34.3500°E)
Time: 16:04:38
(UTC+00:00)

IGS 5A - Pass Details

Date: 18 September 2020
Orbit: 583 x 588 km, 97.6° (Epoch: 09 October)

Event Time Altitude Azimuth Distance (km) Brightness Sun altitude
Exits shadow 18:00:40 32° 45° (NE) 1,027 4.5 -21.7°
Drops below altitude 10° 18:03:42 10° 3° (N) 1,918 6.4 -22.1°
Sets 18:05:59 0° 355° (N) 2,823 7.4 -22.4°
